TimeCDT,TemperatureF,Dew PointF,Humidity,Sea Level PressureIn,VisibilityMPH,Wind Direction,Wind SpeedMPH,Gust SpeedMPH,PrecipitationIn,Events,Conditions,WindDirDegrees,DateUTC
12:58 AM,75.7,73.2,92,30.02,10.0,SW,5.8,-,N/A,,Clear,230,2013-06-27 05:58:00
1:58 AM,75.2,73.0,93,30.01,10.0,West,3.5,-,N/A,,Clear,260,2013-06-27 06:58:00
2:58 AM,75.0,73.0,94,30.00,10.0,West,1.2,-,N/A,,Clear,270,2013-06-27 07:58:00
3:58 AM,73.9,73.0,97,30.02,10.0,WNW,2.3,-,N/A,,Clear,290,2013-06-27 08:58:00
4:58 AM,73.8,72.9,97,30.02,10.0,WNW,2.3,-,N/A,,Partly Cloudy,290,2013-06-27 09:58:00
5:58 AM,73.8,72.5,96,30.03,10.0,SW,4.6,-,N/A,,Partly Cloudy,220,2013-06-27 10:58:00
6:58 AM,75.0,73.8,96,30.02,10.0,WSW,3.5,-,N/A,,Clear,240,2013-06-27 11:58:00
7:58 AM,78.6,75.2,89,30.03,10.0,West,6.9,-,N/A,,Clear,270,2013-06-27 12:58:00
8:53 AM,82.4,75.2,79,30.01,10.0,WSW,9.2,-,N/A,,Mostly Cloudy,240,2013-06-27 13:53:00
8:58 AM,82.8,75.6,79,30.01,10.0,Variable,6.9,-,N/A,,Mostly Cloudy,0,2013-06-27 13:58:00
9:03 AM,84.2,75.2,74,30.02,10.0,West,11.5,-,N/A,,Mostly Cloudy,260,2013-06-27 14:03:00
9:18 AM,84.2,75.2,74,30.01,10.0,West,10.4,-,N/A,,Scattered Clouds,280,2013-06-27 14:18:00
9:23 AM,84.2,75.2,74,30.01,10.0,West,11.5,-,N/A,,Mostly Cloudy,270,2013-06-27 14:23:00
9:53 AM,86.0,75.2,70,30.02,10.0,West,10.4,-,N/A,,Mostly Cloudy,270,2013-06-27 14:53:00
9:58 AM,86.4,75.0,69,30.02,10.0,WNW,9.2,-,N/A,,Scattered Clouds,290,2013-06-27 14:58:00
10:58 AM,87.1,74.5,66,30.01,10.0,West,5.8,-,N/A,,Mostly Cloudy,260,2013-06-27 15:58:00
11:58 AM,86.2,75.0,69,30.01,10.0,WNW,8.1,-,N/A,,Mostly Cloudy,300,2013-06-27 16:58:00
12:58 PM,89.6,73.8,59,29.98,10.0,WSW,9.2,-,N/A,,Overcast,250,2013-06-27 17:58:00
1:58 PM,89.2,72.5,58,29.96,10.0,West,10.4,-,N/A,,Mostly Cloudy,280,2013-06-27 18:58:00
2:58 PM,88.2,71.6,58,29.95,10.0,West,8.1,-,N/A,,Scattered Clouds,270,2013-06-27 19:58:00
3:58 PM,88.9,73.0,59,29.94,10.0,WSW,6.9,-,N/A,,Mostly Cloudy,240,2013-06-27 20:58:00
4:58 PM,89.1,73.2,59,29.92,10.0,WSW,5.8,-,N/A,,Clear,240,2013-06-27 21:58:00
5:58 PM,90.5,72.0,54,29.90,10.0,WSW,9.2,-,N/A,,Clear,240,2013-06-27 22:58:00
6:58 PM,88.0,72.7,60,29.91,10.0,SW,5.8,-,N/A,,Clear,220,2013-06-27 23:58:00
7:58 PM,84.0,74.3,72,29.91,10.0,South,5.8,-,N/A,,Clear,190,2013-06-28 00:58:00
8:58 PM,81.9,77.4,86,29.91,10.0,SSW,5.8,-,N/A,,Clear,200,2013-06-28 01:58:00
9:58 PM,80.6,77.2,89,29.93,10.0,SSW,4.6,-,N/A,,Clear,200,2013-06-28 02:58:00
10:58 PM,80.2,76.8,89,29.93,10.0,SSW,4.6,-,N/A,,Clear,210,2013-06-28 03:58:00
11:21 PM,80.6,77.0,89,29.93,10.0,NE,4.6,-,N/A,Rain,Light Rain,40,2013-06-28 04:21:00
11:36 PM,78.8,77.0,94,29.91,3.0,South,4.6,-,N/A,Rain,Light Rain,170,2013-06-28 04:36:00
11:41 PM,78.8,77.0,94,29.90,8.0,South,5.8,-,N/A,Rain,Light Rain,190,2013-06-28 04:41:00
11:50 PM,78.8,77.0,94,29.91,10.0,SW,4.6,-,N/A,,Scattered Clouds,230,2013-06-28 04:50:00
11:58 PM,79.2,77.0,93,29.92,10.0,WNW,2.3,-,0.04,,Partly Cloudy,290,2013-06-28 04:58:00